This is the latest recevied weather packets stored in our database for station/object W7TTE. If no packets are shown the sender has not sent any weather packets the latest 10 day(s).
| Time | Temp. | Humidity | Pressure | Rain* | Wind** | Luminosity | Snow |
|---|---|---|---|---|---|---|---|
| 1777850900 | 35° C | 16% | 1008.7 hPa | 0 mm | - | 324 W/m² | - |
| 1777850597 | 35° C | 16% | 1008.7 hPa | 0 mm | - | 341 W/m² | - |
| 1777850295 | 35° C | 17% | 1008.6 hPa | 0 mm | - | 359 W/m² | - |
| 1777849992 | 35° C | 16% | 1008.7 hPa | 0 mm | - | 371 W/m² | - |
| 1777849688 | 35.56° C | 16% | 1008.7 hPa | 0 mm | - | 389 W/m² | - |
| 1777849385 | 35.56° C | 16% | 1008.9 hPa | 0 mm | - | 402 W/m² | - |
| 1777849083 | 35.56° C | 16% | 1008.8 hPa | 0 mm | - | 416 W/m² | - |
| 1777848778 | 35.56° C | 16% | 1008.9 hPa | 0 mm | - | 433 W/m² | - |
| 1777848475 | 35.56° C | 16% | 1009.1 hPa | 0 mm | - | 438 W/m² | - |
| 1777848173 | 35.56° C | 16% | 1008.8 hPa | 0 mm | - | 454 W/m² | - |
| 1777847870 | 36.11° C | 15% | 1009 hPa | 0 mm | - | 477 W/m² | - |
| 1777847567 | 35.56° C | 16% | 1009.1 hPa | 0 mm | - | 489 W/m² | - |
| 1777847263 | 36.67° C | 16% | 1009.2 hPa | 0 mm | - | 501 W/m² | - |
| 1777846961 | 36.11° C | 16% | 1009.4 hPa | 0 mm | - | 518 W/m² | - |
| 1777846660 | 36.67° C | 15% | 1009.3 hPa | 0 mm | - | 534 W/m² | - |
| 1777846357 | 36.67° C | 15% | 1009.4 hPa | 0 mm | - | 552 W/m² | - |
| 1777846053 | 36.11° C | 15% | 1009.5 hPa | 0 mm | - | 565 W/m² | - |
| 1777845750 | 36.67° C | 15% | 1009.5 hPa | 0 mm | - | 578 W/m² | - |
| 1777845447 | 36.67° C | 15% | 1009.6 hPa | 0 mm | - | 591 W/m² | - |
| 1777845144 | 36.67° C | 15% | 1009.4 hPa | 0 mm | - | 605 W/m² | - |
| 1777844842 | 36.67° C | 15% | 1009.7 hPa | 0 mm | - | 615 W/m² | - |
| 1777844539 | 36.67° C | 16% | 1009.7 hPa | 0 mm | - | 628 W/m² | - |
| 1777844237 | 36.67° C | 15% | 1009.7 hPa | 0 mm | - | 636 W/m² | - |
| 1777843934 | 37.22° C | 15% | 1009.7 hPa | 0 mm | - | 651 W/m² | - |
| 1777843631 | 36.11° C | 15% | 1009.9 hPa | 0 mm | - | 658 W/m² | - |
* Rain latest hour (hover to see other rain measurements)
** Current wind speed in m/s (hover to see current wind gust speed)